Time,TemperatureF,DewpointF,PressureIn,WindDirection,WindDirectionDegrees,WindSpeedMPH,WindSpeedGustMPH,Humidity,HourlyPrecipIn,Conditions,Clouds,dailyrainin,SoftwareType,DateUTC
2013-02-19 00:01:00,30.6,28.3,29.73,South,173,0.0,0.0,91,0.00,,---,0.00,VWS V14.01,2013-02-19 08:01:00,
2013-02-19 00:06:00,30.7,28.4,29.73,South,173,0.0,0.0,91,0.00,,---,0.00,VWS V14.01,2013-02-19 08:06:00,
2013-02-19 00:11:00,30.8,28.5,29.72,South,173,0.0,0.0,91,0.00,,---,0.00,VWS V14.01,2013-02-19 08:11:00,
2013-02-19 00:16:00,31.0,28.7,29.72,South,173,0.0,0.0,91,0.00,,---,0.00,VWS V14.01,2013-02-19 08:16:00,
2013-02-19 00:21:00,31.1,28.8,29.72,South,173,0.0,0.0,91,0.00,,---,0.00,VWS V14.01,2013-02-19 08:21:00,
2013-02-19 00:26:00,31.2,28.6,29.72,South,173,0.0,0.0,90,0.00,,---,0.00,VWS V14.01,2013-02-19 08:26:00,
2013-02-19 00:31:00,31.1,28.5,29.72,South,173,0.0,0.0,90,0.00,,---,0.00,VWS V14.01,2013-02-19 08:31:00,
2013-02-19 00:36:00,31.1,28.5,29.72,South,173,0.0,0.0,90,0.00,,---,0.00,VWS V14.01,2013-02-19 08:36:00,
2013-02-19 00:41:00,31.2,28.6,29.72,South,173,0.0,0.0,90,0.00,,---,0.00,VWS V14.01,2013-02-19 08:41:00,
2013-02-19 00:46:00,31.2,28.6,29.71,South,173,0.0,0.0,90,0.00,,---,0.00,VWS V14.01,2013-02-19 08:46:00,
2013-02-19 00:51:00,31.2,28.6,29.71,South,173,0.0,0.0,90,0.00,,---,0.00,VWS V14.01,2013-02-19 08:51:00,
2013-02-19 00:56:00,31.1,28.5,29.71,South,173,0.0,0.0,90,0.00,,---,0.00,VWS V14.01,2013-02-19 08:56:00,
2013-02-19 01:01:00,31.0,28.7,29.71,South,173,0.0,0.0,91,0.00,,---,0.00,VWS V14.01,2013-02-19 09:01:00,
2013-02-19 01:06:00,31.1,28.8,29.70,South,173,0.0,0.0,91,0.00,,---,0.00,VWS V14.01,2013-02-19 09:06:00,
2013-02-19 01:11:00,31.1,28.8,29.70,South,173,0.0,0.0,91,0.00,,---,0.00,VWS V14.01,2013-02-19 09:11:00,
2013-02-19 01:16:00,31.2,28.9,29.70,South,173,0.0,0.0,91,0.00,,---,0.00,VWS V14.01,2013-02-19 09:16:00,
2013-02-19 01:22:00,31.4,28.8,29.71,South,173,0.0,0.0,90,0.00,,---,0.00,VWS V14.01,2013-02-19 09:22:00,
2013-02-19 01:27:00,31.5,28.9,29.71,South,173,0.0,0.0,90,0.00,,---,0.00,VWS V14.01,2013-02-19 09:27:00,
2013-02-19 01:32:00,31.5,28.9,29.71,South,173,0.0,0.0,90,0.00,,---,0.00,VWS V14.01,2013-02-19 09:32:00,
2013-02-19 01:37:00,31.4,29.1,29.71,South,173,0.0,0.0,91,0.00,,---,0.00,VWS V14.01,2013-02-19 09:37:00,
2013-02-19 01:42:00,31.3,29.2,29.71,South,173,0.0,0.0,92,0.00,,---,0.00,VWS V14.01,2013-02-19 09:42:00,
2013-02-19 01:47:00,31.3,29.2,29.71,South,173,0.0,0.0,92,0.00,,---,0.00,VWS V14.01,2013-02-19 09:47:00,
2013-02-19 01:52:00,31.2,29.4,29.71,South,173,0.0,0.0,93,0.00,,---,0.00,VWS V14.01,2013-02-19 09:52:00,
2013-02-19 01:57:00,31.2,29.4,29.71,South,173,0.0,0.0,93,0.00,,---,0.00,VWS V14.01,2013-02-19 09:57:00,
2013-02-19 02:02:00,31.2,29.4,29.70,South,173,0.0,0.0,93,0.00,,---,0.00,VWS V14.01,2013-02-19 10:02:00,
2013-02-19 02:07:00,31.0,29.2,29.70,South,173,0.0,0.0,93,0.00,,---,0.00,VWS V14.01,2013-02-19 10:07:00,
2013-02-19 02:12:00,31.0,29.5,29.70,South,173,0.0,0.0,94,0.00,,---,0.00,VWS V14.01,2013-02-19 10:12:00,
2013-02-19 02:17:00,30.9,29.4,29.70,South,173,0.0,0.0,94,0.00,,---,0.00,VWS V14.01,2013-02-19 10:17:00,
2013-02-19 02:22:00,30.8,29.3,29.70,South,173,0.0,0.0,94,0.00,,---,0.00,VWS V14.01,2013-02-19 10:22:00,
2013-02-19 02:27:00,30.8,29.5,29.70,South,173,0.0,0.0,95,0.00,,---,0.00,VWS V14.01,2013-02-19 10:27:00,
2013-02-19 02:32:00,30.9,29.6,29.69,South,173,0.0,0.0,95,0.00,,---,0.00,VWS V14.01,2013-02-19 10:32:00,
2013-02-19 02:37:00,30.8,29.5,29.69,South,173,0.0,0.0,95,0.00,,---,0.00,VWS V14.01,2013-02-19 10:37:00,
2013-02-19 02:42:00,30.8,29.5,29.69,South,173,0.0,0.0,95,0.00,,---,0.00,VWS V14.01,2013-02-19 10:42:00,
2013-02-19 02:47:00,30.8,29.8,29.69,South,173,0.0,0.0,96,0.00,,---,0.00,VWS V14.01,2013-02-19 10:47:00,
2013-02-19 02:52:00,30.8,29.8,29.69,South,173,0.0,0.0,96,0.00,,---,0.00,VWS V14.01,2013-02-19 10:52:00,
2013-02-19 02:57:00,30.8,29.8,29.69,South,173,0.0,0.0,96,0.00,,---,0.00,VWS V14.01,2013-02-19 10:57:00,
2013-02-19 03:02:00,30.8,29.8,29.69,South,173,0.0,0.0,96,0.00,,---,0.00,VWS V14.01,2013-02-19 11:02:00,
2013-02-19 03:07:00,30.8,29.8,29.68,South,173,0.0,0.0,96,0.00,,---,0.00,VWS V14.01,2013-02-19 11:07:00,
2013-02-19 03:12:00,30.8,29.8,29.68,South,173,0.0,0.0,96,0.00,,---,0.00,VWS V14.01,2013-02-19 11:12:00,
2013-02-19 03:17:00,30.8,29.8,29.68,South,173,0.0,0.0,96,0.00,,---,0.00,VWS V14.01,2013-02-19 11:17:00,
2013-02-19 03:22:00,30.8,29.8,29.68,South,173,0.0,0.0,96,0.00,,---,0.00,VWS V14.01,2013-02-19 11:22:00,
2013-02-19 03:27:00,30.8,30.0,29.68,South,173,0.0,0.0,97,0.00,,---,0.00,VWS V14.01,2013-02-19 11:27:00,
2013-02-19 03:32:00,30.8,29.8,29.68,South,173,0.0,0.0,96,0.00,,---,0.00,VWS V14.01,2013-02-19 11:32:00,
2013-02-19 03:37:00,30.8,30.0,29.68,South,173,0.0,0.0,97,0.00,,---,0.00,VWS V14.01,2013-02-19 11:37:00,
2013-02-19 03:42:00,30.8,30.0,29.68,South,173,0.0,0.0,97,0.00,,---,0.00,VWS V14.01,2013-02-19 11:42:00,
2013-02-19 03:47:00,30.8,30.0,29.67,South,173,0.0,0.0,97,0.00,,---,0.00,VWS V14.01,2013-02-19 11:47:00,
2013-02-19 03:52:00,30.8,30.0,29.67,South,173,0.0,0.0,97,0.00,,---,0.00,VWS V14.01,2013-02-19 11:52:00,
2013-02-19 03:57:00,30.7,30.0,29.67,South,173,0.0,0.0,97,0.00,,---,0.00,VWS V14.01,2013-02-19 11:57:00,
2013-02-19 04:02:00,30.8,30.0,29.67,South,173,0.0,0.0,97,0.00,,---,0.00,VWS V14.01,2013-02-19 12:02:00,
2013-02-19 04:07:00,30.8,30.0,29.67,South,173,0.0,0.0,97,0.00,,---,0.00,VWS V14.01,2013-02-19 12:07:00,
2013-02-19 04:12:00,30.8,30.0,29.67,South,173,0.0,0.0,97,0.00,,---,0.00,VWS V14.01,2013-02-19 12:12:00,
2013-02-19 04:17:00,30.8,30.0,29.67,South,173,0.0,0.0,97,0.00,,---,0.00,VWS V14.01,2013-02-19 12:17:00,
2013-02-19 04:22:00,30.8,30.0,29.67,South,173,0.0,0.0,97,0.00,,---,0.00,VWS V14.01,2013-02-19 12:22:00,
2013-02-19 04:27:00,30.8,30.0,29.67,South,173,0.0,0.0,97,0.00,,---,0.00,VWS V14.01,2013-02-19 12:27:00,
2013-02-19 04:32:00,30.8,30.0,29.67,South,173,0.0,0.0,97,0.00,,---,0.00,VWS V14.01,2013-02-19 12:32:00,
2013-02-19 04:37:00,30.8,30.0,29.67,South,173,0.0,0.0,97,0.00,,---,0.00,VWS V14.01,2013-02-19 12:37:00,
2013-02-19 04:42:00,30.8,30.0,29.67,South,173,0.0,0.0,97,0.00,,---,0.00,VWS V14.01,2013-02-19 12:42:00,
2013-02-19 04:47:00,30.8,30.0,29.67,South,173,0.0,0.0,97,0.00,,---,0.00,VWS V14.01,2013-02-19 12:47:00,
2013-02-19 04:52:00,30.9,30.1,29.67,South,173,0.0,0.0,97,0.00,,---,0.00,VWS V14.01,2013-02-19 12:52:00,
2013-02-19 04:57:00,30.9,30.1,29.67,South,173,0.0,0.0,97,0.00,,---,0.00,VWS V14.01,2013-02-19 12:57:00,
2013-02-19 05:02:00,30.8,30.0,29.67,South,173,0.0,0.0,97,0.00,,---,0.00,VWS V14.01,2013-02-19 13:02:00,
2013-02-19 05:07:00,30.9,30.1,29.67,South,173,0.0,0.0,97,0.00,,---,0.00,VWS V14.01,2013-02-19 13:07:00,
2013-02-19 05:12:00,30.9,30.1,29.67,South,173,0.0,0.0,97,0.00,,---,0.00,VWS V14.01,2013-02-19 13:12:00,
2013-02-19 05:17:00,30.9,30.1,29.67,South,173,0.0,0.0,97,0.00,,---,0.00,VWS V14.01,2013-02-19 13:17:00,
2013-02-19 05:22:00,30.9,30.1,29.67,South,173,0.0,0.0,97,0.00,,---,0.00,VWS V14.01,2013-02-19 13:22:00,
2013-02-19 05:27:00,30.9,30.1,29.67,South,173,0.0,0.0,97,0.00,,---,0.00,VWS V14.01,2013-02-19 13:27:00,
2013-02-19 05:32:00,30.9,30.1,29.67,South,173,0.0,0.0,97,0.00,,---,0.00,VWS V14.01,2013-02-19 13:32:00,
2013-02-19 05:37:00,30.9,30.1,29.67,South,173,0.0,0.0,97,0.00,,---,0.00,VWS V14.01,2013-02-19 13:37:00,
2013-02-19 05:42:00,30.9,30.1,29.66,South,173,0.0,0.0,97,0.00,,---,0.00,VWS V14.01,2013-02-19 13:42:00,
2013-02-19 05:47:00,31.0,30.2,29.66,South,173,0.0,0.0,97,0.00,,---,0.00,VWS V14.01,2013-02-19 13:47:00,
2013-02-19 05:52:00,31.0,30.2,29.67,South,173,0.0,0.0,97,0.00,,---,0.00,VWS V14.01,2013-02-19 13:52:00,
2013-02-19 05:57:00,31.0,30.2,29.67,South,173,0.0,0.0,97,0.00,,---,0.00,VWS V14.01,2013-02-19 13:57:00,
2013-02-19 06:02:00,31.1,30.4,29.67,South,173,0.0,0.0,97,0.00,,---,0.00,VWS V14.01,2013-02-19 14:02:00,
2013-02-19 06:07:00,31.1,30.4,29.67,South,173,0.0,0.0,97,0.00,,---,0.00,VWS V14.01,2013-02-19 14:07:00,
2013-02-19 06:12:00,31.0,30.2,29.67,South,173,0.0,0.0,97,0.00,,---,0.00,VWS V14.01,2013-02-19 14:12:00,
2013-02-19 06:17:00,31.1,30.4,29.66,South,173,0.0,0.0,97,0.00,,---,0.00,VWS V14.01,2013-02-19 14:17:00,
2013-02-19 06:22:00,31.1,30.4,29.66,South,173,0.0,0.0,97,0.00,,---,0.00,VWS V14.01,2013-02-19 14:22:00,
2013-02-19 06:27:00,31.1,30.4,29.66,South,173,0.0,0.0,97,0.00,,---,0.00,VWS V14.01,2013-02-19 14:27:00,
2013-02-19 06:32:00,31.1,30.4,29.66,South,173,0.0,0.0,97,0.00,,---,0.00,VWS V14.01,2013-02-19 14:32:00,
2013-02-19 06:37:00,31.1,30.4,29.66,South,173,0.0,0.0,97,0.00,,---,0.00,VWS V14.01,2013-02-19 14:37:00,
2013-02-19 06:42:00,31.1,30.4,29.66,South,173,0.0,0.0,97,0.00,,---,0.00,VWS V14.01,2013-02-19 14:42:00,
2013-02-19 06:47:00,31.1,30.4,29.66,South,173,0.0,0.0,97,0.00,,---,0.00,VWS V14.01,2013-02-19 14:47:00,
2013-02-19 06:52:00,31.1,30.4,29.66,South,173,0.0,0.0,97,0.00,,---,0.00,VWS V14.01,2013-02-19 14:52:00,
2013-02-19 06:57:00,31.2,30.5,29.66,South,173,0.0,0.0,97,0.00,,---,0.00,VWS V14.01,2013-02-19 14:57:00,
2013-02-19 07:02:00,31.2,30.5,29.66,South,173,0.0,0.0,97,0.00,,---,0.00,VWS V14.01,2013-02-19 15:02:00,
2013-02-19 07:07:00,31.2,30.5,29.66,South,173,0.0,0.0,97,0.00,,---,0.00,VWS V14.01,2013-02-19 15:07:00,
2013-02-19 07:12:00,31.3,30.5,29.66,South,173,0.0,2.0,97,0.00,,---,0.00,VWS V14.01,2013-02-19 15:12:00,
2013-02-19 07:17:00,31.4,30.6,29.66,South,173,0.0,2.0,97,0.00,,---,0.00,VWS V14.01,2013-02-19 15:17:00,
2013-02-19 07:22:00,31.4,30.6,29.66,SSE,149,1.0,2.0,97,0.00,,---,0.00,VWS V14.01,2013-02-19 15:22:00,
2013-02-19 07:27:00,31.5,30.8,29.66,NE,45,2.0,3.0,97,0.00,,---,0.00,VWS V14.01,2013-02-19 15:27:00,
2013-02-19 07:32:00,31.5,30.8,29.66,NE,45,0.0,3.0,97,0.00,,---,0.00,VWS V14.01,2013-02-19 15:32:00,
2013-02-19 07:37:00,31.6,30.9,29.66,NE,45,0.0,3.0,97,0.00,,---,0.00,VWS V14.01,2013-02-19 15:37:00,
2013-02-19 07:42:00,31.6,30.9,29.66,NE,45,0.0,3.0,97,0.00,,---,0.00,VWS V14.01,2013-02-19 15:42:00,
2013-02-19 07:47:00,31.7,31.0,29.66,NE,45,0.0,3.0,97,0.00,,---,0.00,VWS V14.01,2013-02-19 15:47:00,
2013-02-19 07:52:00,31.7,31.0,29.66,NE,45,2.0,3.0,97,0.00,,---,0.00,VWS V14.01,2013-02-19 15:52:00,
2013-02-19 07:57:00,31.8,31.0,29.66,NE,45,0.0,3.0,97,0.00,,---,0.00,VWS V14.01,2013-02-19 15:57:00,
2013-02-19 08:02:00,31.8,31.0,29.66,NE,45,0.0,0.0,97,0.00,,---,0.00,VWS V14.01,2013-02-19 16:02:00,
2013-02-19 08:07:00,31.9,31.1,29.66,NE,45,0.0,1.0,97,0.00,,---,0.00,VWS V14.01,2013-02-19 16:07:00,
2013-02-19 08:12:00,31.9,31.1,29.66,NE,45,0.0,1.0,97,0.00,,---,0.00,VWS V14.01,2013-02-19 16:12:00,
2013-02-19 08:17:00,32.0,31.2,29.66,NNE,14,2.0,3.0,97,0.00,,---,0.00,VWS V14.01,2013-02-19 16:17:00,
2013-02-19 08:22:00,32.0,31.2,29.66,NNE,14,0.0,3.0,97,0.00,,---,0.00,VWS V14.01,2013-02-19 16:22:00,
2013-02-19 08:27:00,32.1,31.4,29.66,NNE,14,0.0,3.0,97,0.00,,---,0.00,VWS V14.01,2013-02-19 16:27:00,
2013-02-19 08:32:00,32.1,31.1,29.66,NNE,14,0.0,3.0,96,0.00,,---,0.00,VWS V14.01,2013-02-19 16:32:00,
2013-02-19 08:37:00,32.3,31.3,29.67,NNE,14,0.0,3.0,96,0.00,,---,0.00,VWS V14.01,2013-02-19 16:37:00,
2013-02-19 08:42:00,32.4,31.4,29.66,NNE,14,0.0,3.0,96,0.00,,---,0.00,VWS V14.01,2013-02-19 16:42:00,
2013-02-19 08:47:00,32.5,31.5,29.66,NNE,14,1.0,3.0,96,0.00,,---,0.00,VWS V14.01,2013-02-19 16:47:00,
2013-02-19 08:52:00,32.6,31.6,29.66,NNE,14,2.0,3.0,96,0.00,,---,0.00,VWS V14.01,2013-02-19 16:52:00,
2013-02-19 08:57:00,32.6,31.6,29.66,NNW,333,2.0,4.0,96,0.00,,---,0.00,VWS V14.01,2013-02-19 16:57:00,
2013-02-19 09:02:00,32.7,31.7,29.66,NNW,333,0.0,2.0,96,0.00,,---,0.00,VWS V14.01,2013-02-19 17:02:00,
2013-02-19 09:07:00,32.8,31.5,29.66,NNW,333,1.0,2.0,95,0.00,,---,0.00,VWS V14.01,2013-02-19 17:07:00,
2013-02-19 09:12:00,32.9,31.6,29.66,NNW,333,0.0,2.0,95,0.00,,---,0.00,VWS V14.01,2013-02-19 17:12:00,
2013-02-19 09:17:00,33.0,31.7,29.66,NNW,333,0.0,3.0,95,0.00,,---,0.00,VWS V14.01,2013-02-19 17:17:00,
2013-02-19 09:22:00,33.1,31.8,29.66,NNW,329,2.0,4.0,95,0.00,,---,0.00,VWS V14.01,2013-02-19 17:22:00,
2013-02-19 09:27:00,33.1,31.8,29.66,NNW,329,2.0,4.0,95,0.00,,---,0.00,VWS V14.01,2013-02-19 17:27:00,
2013-02-19 09:32:00,33.0,31.5,29.66,North,5,1.0,4.0,94,0.00,,---,0.00,VWS V14.01,2013-02-19 17:32:00,
2013-02-19 09:37:00,33.0,31.7,29.66,North,5,1.0,4.0,95,0.00,,---,0.00,VWS V14.01,2013-02-19 17:37:00,
2013-02-19 09:42:00,33.2,31.9,29.65,North,5,2.0,4.0,95,0.00,,---,0.00,VWS V14.01,2013-02-19 17:42:00,
2013-02-19 09:47:00,33.2,31.7,29.66,North,360,0.0,5.0,94,0.00,,---,0.00,VWS V14.01,2013-02-19 17:47:00,
2013-02-19 09:52:00,33.3,31.8,29.65,North,360,0.0,5.0,94,0.00,,---,0.00,VWS V14.01,2013-02-19 17:52:00,
2013-02-19 09:57:00,33.5,32.2,29.65,NNE,22,3.0,5.0,95,0.00,,---,0.00,VWS V14.01,2013-02-19 17:57:00,
2013-02-19 10:02:00,33.6,32.1,29.65,North,5,1.0,3.0,94,0.00,,---,0.00,VWS V14.01,2013-02-19 18:02:00,
2013-02-19 10:07:00,33.5,32.0,29.65,North,350,2.0,4.0,94,0.00,,---,0.00,VWS V14.01,2013-02-19 18:07:00,
2013-02-19 10:12:00,33.6,32.1,29.65,North,355,3.0,5.0,94,0.00,,---,0.00,VWS V14.01,2013-02-19 18:12:00,
2013-02-19 10:17:00,33.5,32.0,29.65,North,355,2.0,5.0,94,0.00,,---,0.00,VWS V14.01,2013-02-19 18:17:00,
2013-02-19 10:22:00,33.4,31.9,29.65,NNW,344,3.0,5.0,94,0.00,,---,0.00,VWS V14.01,2013-02-19 18:22:00,
2013-02-19 10:27:00,33.5,32.0,29.65,NNW,344,1.0,5.0,94,0.00,,---,0.00,VWS V14.01,2013-02-19 18:27:00,
2013-02-19 10:32:00,33.6,32.1,29.65,NNW,343,4.0,5.0,94,0.00,,---,0.00,VWS V14.01,2013-02-19 18:32:00,
2013-02-19 10:37:00,33.7,32.2,29.65,NNW,329,1.0,5.0,94,0.00,,---,0.00,VWS V14.01,2013-02-19 18:37:00,
2013-02-19 10:42:00,33.7,32.2,29.65,North,360,2.0,5.0,94,0.00,,---,0.00,VWS V14.01,2013-02-19 18:42:00,
2013-02-19 10:47:00,33.7,32.2,29.65,North,360,2.0,5.0,94,0.01,,---,0.01,VWS V14.01,2013-02-19 18:47:00,
2013-02-19 10:52:00,33.7,32.2,29.65,NNW,338,3.0,5.0,94,0.01,,---,0.01,VWS V14.01,2013-02-19 18:52:00,
2013-02-19 10:57:00,33.8,32.3,29.65,NNW,340,2.0,5.0,94,0.01,,---,0.01,VWS V14.01,2013-02-19 18:57:00,
2013-02-19 11:02:00,33.9,32.4,29.65,NNW,340,0.0,1.0,94,0.01,,---,0.01,VWS V14.01,2013-02-19 19:02:00,
2013-02-19 11:07:00,34.2,32.7,29.66,NNW,340,1.0,3.0,94,0.02,,---,0.02,VWS V14.01,2013-02-19 19:07:00,
2013-02-19 11:12:00,34.3,32.8,29.66,North,5,2.0,5.0,94,0.02,,---,0.02,VWS V14.01,2013-02-19 19:12:00,
2013-02-19 11:17:00,34.3,32.5,29.66,NNW,330,1.0,5.0,93,0.02,,---,0.02,VWS V14.01,2013-02-19 19:17:00,
2013-02-19 11:22:00,34.3,32.5,29.66,North,5,2.0,5.0,93,0.02,,---,0.02,VWS V14.01,2013-02-19 19:22:00,
2013-02-19 11:27:00,34.1,32.3,29.66,NNE,15,0.0,5.0,93,0.03,,---,0.03,VWS V14.01,2013-02-19 19:27:00,
2013-02-19 11:32:00,34.0,32.2,29.66,NNE,27,0.0,5.0,93,0.03,,---,0.03,VWS V14.01,2013-02-19 19:32:00,
2013-02-19 11:37:00,34.2,32.4,29.66,North,351,1.0,5.0,93,0.03,,---,0.03,VWS V14.01,2013-02-19 19:37:00,
2013-02-19 11:42:00,34.3,32.8,29.66,North,351,1.0,5.0,94,0.04,,---,0.04,VWS V14.01,2013-02-19 19:42:00,
2013-02-19 11:47:00,34.2,32.4,29.66,NNW,330,1.0,5.0,93,0.04,,---,0.04,VWS V14.01,2013-02-19 19:47:00,
2013-02-19 11:52:00,34.0,32.2,29.66,NNW,348,3.0,5.0,93,0.05,,---,0.05,VWS V14.01,2013-02-19 19:52:00,
2013-02-19 11:57:00,34.0,32.5,29.66,NNW,332,0.0,5.0,94,0.05,,---,0.05,VWS V14.01,2013-02-19 19:57:00,
2013-02-19 12:02:00,34.0,32.5,29.66,NNW,332,0.0,1.0,94,0.05,,---,0.06,VWS V14.01,2013-02-19 20:02:00,
2013-02-19 12:07:00,34.1,32.6,29.66,NNW,332,2.0,2.0,94,0.05,,---,0.06,VWS V14.01,2013-02-19 20:07:00,
2013-02-19 12:12:00,34.1,32.6,29.66,WNW,302,0.0,3.0,94,0.05,,---,0.06,VWS V14.01,2013-02-19 20:12:00,
2013-02-19 12:17:00,34.2,32.7,29.66,WNW,302,1.0,3.0,94,0.06,,---,0.07,VWS V14.01,2013-02-19 20:17:00,
2013-02-19 12:22:00,34.0,32.5,29.66,NNW,341,3.0,4.0,94,0.06,,---,0.07,VWS V14.01,2013-02-19 20:22:00,
2013-02-19 12:27:00,33.9,32.1,29.66,North,355,0.0,5.0,93,0.07,,---,0.08,VWS V14.01,2013-02-19 20:27:00,
2013-02-19 12:32:00,34.1,32.6,29.66,NW,324,1.0,5.0,94,0.07,,---,0.08,VWS V14.01,2013-02-19 20:32:00,
2013-02-19 12:37:00,34.1,32.3,29.66,NNW,345,2.0,5.0,93,0.08,,---,0.09,VWS V14.01,2013-02-19 20:37:00,
2013-02-19 12:41:00,34.0,32.2,29.66,NNW,348,3.0,5.0,93,0.08,,---,0.09,VWS V14.01,2013-02-19 20:41:00,
2013-02-19 12:46:00,34.0,32.2,29.66,North,355,3.0,5.0,93,0.09,,---,0.10,VWS V14.01,2013-02-19 20:46:00,
2013-02-19 12:51:00,34.0,32.2,29.66,North,350,2.0,5.0,93,0.09,,---,0.10,VWS V14.01,2013-02-19 20:51:00,
2013-02-19 12:56:00,34.1,32.3,29.67,North,350,1.0,5.0,93,0.10,,---,0.11,VWS V14.01,2013-02-19 20:56:00,
2013-02-19 13:01:00,34.3,32.8,29.67,North,350,1.0,1.0,94,0.05,,---,0.11,VWS V14.01,2013-02-19 21:01:00,
2013-02-19 13:06:00,34.2,32.7,29.67,North,350,0.0,2.0,94,0.06,,---,0.12,VWS V14.01,2013-02-19 21:06:00,
2013-02-19 13:11:00,34.4,32.9,29.67,North,350,3.0,3.0,94,0.06,,---,0.12,VWS V14.01,2013-02-19 21:11:00,
2013-02-19 13:16:00,34.1,32.6,29.67,North,360,3.0,4.0,94,0.06,,---,0.12,VWS V14.01,2013-02-19 21:16:00,
2013-02-19 13:21:00,34.1,32.6,29.67,North,360,2.0,4.0,94,0.06,,---,0.12,VWS V14.01,2013-02-19 21:21:00,
2013-02-19 13:26:00,34.0,32.5,29.67,NNW,332,1.0,4.0,94,0.07,,---,0.13,VWS V14.01,2013-02-19 21:26:00,
2013-02-19 13:32:00,33.9,32.4,29.67,NNW,332,1.0,4.0,94,0.07,,---,0.13,VWS V14.01,2013-02-19 21:32:00,
2013-02-19 13:37:00,34.0,32.5,29.67,NNW,338,2.0,4.0,94,0.07,,---,0.13,VWS V14.01,2013-02-19 21:37:00,
2013-02-19 13:42:00,34.1,32.6,29.68,NNW,338,0.0,4.0,94,0.08,,---,0.14,VWS V14.01,2013-02-19 21:42:00,
2013-02-19 13:47:00,34.3,33.0,29.68,NNW,338,0.0,4.0,95,0.08,,---,0.14,VWS V14.01,2013-02-19 21:47:00,
2013-02-19 13:52:00,34.5,33.0,29.68,WNW,289,0.0,4.0,94,0.08,,---,0.14,VWS V14.01,2013-02-19 21:52:00,
2013-02-19 13:56:00,34.7,33.2,29.68,WNW,289,0.0,4.0,94,0.08,,---,0.14,VWS V14.01,2013-02-19 21:56:00,
2013-02-19 14:01:00,34.5,33.0,29.68,WNW,289,1.0,1.0,94,0.03,,---,0.14,VWS V14.01,2013-02-19 22:01:00,
2013-02-19 14:06:00,34.5,33.0,29.68,WNW,289,0.0,1.0,94,0.04,,---,0.15,VWS V14.01,2013-02-19 22:06:00,
2013-02-19 14:11:00,34.7,33.2,29.68,WNW,289,2.0,2.0,94,0.04,,---,0.15,VWS V14.01,2013-02-19 22:11:00,
2013-02-19 14:16:00,35.0,33.5,29.68,WNW,289,0.0,3.0,94,0.04,,---,0.15,VWS V14.01,2013-02-19 22:16:00,
2013-02-19 14:21:00,35.2,33.4,29.68,WNW,289,1.0,3.0,93,0.04,,---,0.15,VWS V14.01,2013-02-19 22:21:00,
2013-02-19 14:26:00,35.1,33.3,29.68,NNW,341,0.0,3.0,93,0.04,,---,0.15,VWS V14.01,2013-02-19 22:26:00,
2013-02-19 14:31:00,35.1,33.3,29.68,NNW,341,1.0,3.0,93,0.04,,---,0.15,VWS V14.01,2013-02-19 22:31:00,
2013-02-19 14:36:00,34.7,32.6,29.68,West,281,0.0,3.0,92,0.04,,---,0.15,VWS V14.01,2013-02-19 22:36:00,
2013-02-19 14:41:00,34.8,33.0,29.69,South,181,3.0,3.0,93,0.04,,---,0.15,VWS V14.01,2013-02-19 22:41:00,
2013-02-19 14:46:00,34.7,32.9,29.69,SSW,208,0.0,4.0,93,0.04,,---,0.15,VWS V14.01,2013-02-19 22:46:00,
2013-02-19 14:51:00,34.8,32.7,29.69,WSW,252,1.0,4.0,92,0.04,,---,0.15,VWS V14.01,2013-02-19 22:51:00,
2013-02-19 14:56:00,35.0,32.9,29.69,NW,306,0.0,4.0,92,0.04,,---,0.15,VWS V14.01,2013-02-19 22:56:00,
2013-02-19 15:01:00,35.0,33.2,29.69,SSW,202,2.0,3.0,93,0.01,,---,0.15,VWS V14.01,2013-02-19 23:01:00,
2013-02-19 15:06:00,34.7,32.9,29.69,SSW,205,2.0,3.0,93,0.01,,---,0.15,VWS V14.01,2013-02-19 23:06:00,
2013-02-19 15:11:00,34.6,32.8,29.69,SSW,205,0.0,3.0,93,0.01,,---,0.15,VWS V14.01,2013-02-19 23:11:00,
2013-02-19 15:16:00,34.8,33.0,29.69,NW,305,0.0,3.0,93,0.01,,---,0.15,VWS V14.01,2013-02-19 23:16:00,
2013-02-19 15:21:00,35.2,33.1,29.70,SW,234,0.0,3.0,92,0.01,,---,0.15,VWS V14.01,2013-02-19 23:21:00,
2013-02-19 15:26:00,35.3,33.2,29.70,SW,234,0.0,3.0,92,0.01,,---,0.15,VWS V14.01,2013-02-19 23:26:00,
2013-02-19 15:31:00,35.2,32.8,29.70,SW,223,1.0,4.0,91,0.01,,---,0.15,VWS V14.01,2013-02-19 23:31:00,
2013-02-19 15:36:00,35.2,32.6,29.70,SW,223,0.0,4.0,90,0.01,,---,0.15,VWS V14.01,2013-02-19 23:36:00,
2013-02-19 15:41:00,35.3,32.7,29.70,SW,236,0.0,4.0,90,0.01,,---,0.15,VWS V14.01,2013-02-19 23:41:00,
2013-02-19 15:46:00,35.2,32.8,29.70,South,171,1.0,4.0,91,0.01,,---,0.15,VWS V14.01,2013-02-19 23:46:00,
2013-02-19 15:51:00,35.3,32.7,29.70,ESE,105,0.0,4.0,90,0.01,,---,0.15,VWS V14.01,2013-02-19 23:51:00,
2013-02-19 15:56:00,35.4,33.0,29.70,ESE,105,1.0,4.0,91,0.01,,---,0.15,VWS V14.01,2013-02-19 23:56:00,
2013-02-19 16:01:00,35.2,32.6,29.69,SW,217,2.0,2.0,90,0.00,,---,0.15,VWS V14.01,2013-02-20 00:01:00,
2013-02-19 16:06:00,35.0,32.6,29.70,SW,218,0.0,3.0,91,0.00,,---,0.15,VWS V14.01,2013-02-20 00:06:00,
2013-02-19 16:11:00,34.9,32.8,29.70,SW,218,0.0,3.0,92,0.00,,---,0.15,VWS V14.01,2013-02-20 00:11:00,
2013-02-19 16:16:00,35.0,32.9,29.70,NW,321,4.0,4.0,92,0.00,,---,0.15,VWS V14.01,2013-02-20 00:16:00,
2013-02-19 16:21:00,35.1,32.7,29.70,NW,318,0.0,4.0,91,0.00,,---,0.15,VWS V14.01,2013-02-20 00:21:00,
2013-02-19 16:26:00,35.0,32.6,29.70,North,360,0.0,4.0,91,0.00,,---,0.15,VWS V14.01,2013-02-20 00:26:00,
2013-02-19 16:31:00,34.8,32.2,29.70,North,360,1.0,4.0,90,0.00,,---,0.15,VWS V14.01,2013-02-20 00:31:00,
2013-02-19 16:36:00,34.5,32.2,29.70,North,355,0.0,4.0,91,0.00,,---,0.15,VWS V14.01,2013-02-20 00:36:00,
2013-02-19 16:41:00,34.2,31.9,29.70,North,355,0.0,4.0,91,0.00,,---,0.15,VWS V14.01,2013-02-20 00:41:00,
2013-02-19 16:46:00,34.1,32.0,29.70,North,355,0.0,4.0,92,0.00,,---,0.15,VWS V14.01,2013-02-20 00:46:00,
2013-02-19 16:51:00,33.9,31.8,29.70,North,355,0.0,4.0,92,0.00,,---,0.15,VWS V14.01,2013-02-20 00:51:00,
2013-02-19 16:56:00,33.6,31.5,29.70,North,355,0.0,4.0,92,0.00,,---,0.15,VWS V14.01,2013-02-20 00:56:00,
2013-02-19 17:01:00,33.3,31.2,29.71,North,355,0.0,0.0,92,0.00,,---,0.15,VWS V14.01,2013-02-20 01:01:00,
2013-02-19 17:06:00,32.9,31.1,29.71,North,355,0.0,0.0,93,0.00,,---,0.15,VWS V14.01,2013-02-20 01:06:00,
2013-02-19 17:11:00,32.5,30.7,29.71,North,355,0.0,0.0,93,0.00,,---,0.15,VWS V14.01,2013-02-20 01:11:00,
2013-02-19 17:16:00,32.2,30.7,29.71,North,355,0.0,0.0,94,0.00,,---,0.15,VWS V14.01,2013-02-20 01:16:00,
2013-02-19 17:21:00,31.6,30.1,29.72,North,355,0.0,0.0,94,0.00,,---,0.15,VWS V14.01,2013-02-20 01:21:00,
2013-02-19 17:26:00,31.2,29.9,29.72,North,355,0.0,0.0,95,0.00,,---,0.15,VWS V14.01,2013-02-20 01:26:00,
2013-02-19 17:31:00,30.8,29.5,29.72,North,355,0.0,0.0,95,0.00,,---,0.15,VWS V14.01,2013-02-20 01:31:00,
2013-02-19 17:36:00,30.5,29.2,29.72,North,355,0.0,0.0,95,0.00,,---,0.15,VWS V14.01,2013-02-20 01:36:00,
2013-02-19 17:41:00,30.2,28.9,29.72,North,355,0.0,0.0,95,0.00,,---,0.15,VWS V14.01,2013-02-20 01:41:00,
2013-02-19 17:46:00,29.9,28.9,29.72,North,355,0.0,0.0,96,0.00,,---,0.15,VWS V14.01,2013-02-20 01:46:00,
2013-02-19 17:51:00,29.5,28.5,29.72,North,355,0.0,0.0,96,0.00,,---,0.15,VWS V14.01,2013-02-20 01:51:00,
2013-02-19 17:56:00,29.3,28.3,29.73,North,355,0.0,0.0,96,0.00,,---,0.15,VWS V14.01,2013-02-20 01:56:00,
2013-02-19 18:01:00,29.3,28.3,29.73,North,355,0.0,0.0,96,0.00,,---,0.15,VWS V14.01,2013-02-20 02:01:00,
2013-02-19 18:06:00,29.2,28.5,29.73,North,355,0.0,0.0,97,0.00,,---,0.15,VWS V14.01,2013-02-20 02:06:00,
2013-02-19 18:11:00,28.9,27.9,29.73,North,355,0.0,0.0,96,0.00,,---,0.15,VWS V14.01,2013-02-20 02:11:00,
2013-02-19 18:16:00,28.7,28.0,29.73,North,355,0.0,0.0,97,0.00,,---,0.15,VWS V14.01,2013-02-20 02:16:00,
2013-02-19 18:21:00,28.7,28.0,29.73,North,355,0.0,0.0,97,0.00,,---,0.15,VWS V14.01,2013-02-20 02:21:00,
2013-02-19 18:26:00,28.6,27.9,29.74,North,355,0.0,0.0,97,0.00,,---,0.15,VWS V14.01,2013-02-20 02:26:00,
2013-02-19 18:31:00,28.5,27.8,29.74,North,355,0.0,0.0,97,0.00,,---,0.15,VWS V14.01,2013-02-20 02:31:00,
2013-02-19 18:36:00,28.6,27.9,29.74,North,355,0.0,0.0,97,0.00,,---,0.15,VWS V14.01,2013-02-20 02:36:00,
2013-02-19 18:41:00,28.5,27.8,29.74,North,355,0.0,0.0,97,0.00,,---,0.15,VWS V14.01,2013-02-20 02:41:00,
2013-02-19 18:46:00,28.5,27.8,29.74,North,355,0.0,0.0,97,0.00,,---,0.15,VWS V14.01,2013-02-20 02:46:00,
2013-02-19 18:51:00,28.3,27.6,29.75,North,355,0.0,0.0,97,0.00,,---,0.15,VWS V14.01,2013-02-20 02:51:00,
2013-02-19 18:56:00,28.2,27.5,29.75,North,355,0.0,0.0,97,0.00,,---,0.15,VWS V14.01,2013-02-20 02:56:00,
2013-02-19 19:01:00,27.9,27.2,29.75,North,355,0.0,0.0,97,0.00,,---,0.15,VWS V14.01,2013-02-20 03:01:00,
2013-02-19 19:06:00,27.7,27.0,29.75,North,355,0.0,0.0,97,0.00,,---,0.15,VWS V14.01,2013-02-20 03:06:00,
2013-02-19 19:11:00,27.7,27.0,29.75,North,355,0.0,0.0,97,0.00,,---,0.15,VWS V14.01,2013-02-20 03:11:00,
2013-02-19 19:16:00,27.6,26.9,29.75,North,355,0.0,0.0,97,0.00,,---,0.15,VWS V14.01,2013-02-20 03:16:00,
2013-02-19 19:21:00,27.4,26.7,29.75,North,355,0.0,0.0,97,0.00,,---,0.15,VWS V14.01,2013-02-20 03:21:00,
2013-02-19 19:26:00,27.4,26.7,29.75,North,355,0.0,0.0,97,0.00,,---,0.15,VWS V14.01,2013-02-20 03:26:00,
2013-02-19 19:31:00,27.4,26.7,29.75,North,355,0.0,0.0,97,0.00,,---,0.15,VWS V14.01,2013-02-20 03:31:00,
2013-02-19 19:36:00,27.3,26.6,29.75,North,355,0.0,0.0,97,0.00,,---,0.15,VWS V14.01,2013-02-20 03:36:00,
2013-02-19 19:41:00,26.9,26.2,29.75,North,355,0.0,0.0,97,0.00,,---,0.15,VWS V14.01,2013-02-20 03:41:00,
2013-02-19 19:46:00,26.8,26.1,29.75,North,355,0.0,0.0,97,0.00,,---,0.15,VWS V14.01,2013-02-20 03:46:00,
2013-02-19 19:51:00,26.7,26.0,29.75,North,355,0.0,0.0,97,0.00,,---,0.15,VWS V14.01,2013-02-20 03:51:00,
2013-02-19 19:56:00,26.6,25.9,29.76,North,355,0.0,0.0,97,0.00,,---,0.15,VWS V14.01,2013-02-20 03:56:00,
2013-02-19 20:01:00,26.7,26.0,29.76,North,355,0.0,0.0,97,0.00,,---,0.15,VWS V14.01,2013-02-20 04:01:00,
2013-02-19 20:06:00,26.7,26.0,29.76,North,355,0.0,0.0,97,0.00,,---,0.15,VWS V14.01,2013-02-20 04:06:00,
2013-02-19 20:11:00,26.6,25.9,29.76,North,355,0.0,0.0,97,0.00,,---,0.15,VWS V14.01,2013-02-20 04:11:00,
2013-02-19 20:16:00,26.6,25.9,29.76,North,355,0.0,0.0,97,0.00,,---,0.15,VWS V14.01,2013-02-20 04:16:00,
2013-02-19 20:21:00,26.6,25.9,29.76,North,355,0.0,0.0,97,0.00,,---,0.15,VWS V14.01,2013-02-20 04:21:00,
2013-02-19 20:26:00,26.5,25.8,29.76,North,355,0.0,0.0,97,0.00,,---,0.15,VWS V14.01,2013-02-20 04:26:00,
2013-02-19 20:31:00,26.5,25.8,29.77,North,355,0.0,0.0,97,0.00,,---,0.15,VWS V14.01,2013-02-20 04:31:00,
2013-02-19 20:36:00,26.3,25.6,29.77,North,355,0.0,0.0,97,0.00,,---,0.15,VWS V14.01,2013-02-20 04:36:00,
2013-02-19 20:41:00,26.3,25.6,29.77,North,355,0.0,0.0,97,0.00,,---,0.15,VWS V14.01,2013-02-20 04:41:00,
2013-02-19 20:46:00,26.3,25.6,29.77,North,355,0.0,0.0,97,0.00,,---,0.15,VWS V14.01,2013-02-20 04:46:00,
2013-02-19 20:51:00,26.2,25.5,29.77,North,355,0.0,0.0,97,0.00,,---,0.15,VWS V14.01,2013-02-20 04:51:00,
2013-02-19 20:56:00,26.3,25.6,29.77,North,355,0.0,0.0,97,0.00,,---,0.15,VWS V14.01,2013-02-20 04:56:00,
2013-02-19 21:00:00,26.3,25.6,29.77,North,355,0.0,0.0,97,0.00,,---,0.15,VWS V14.01,2013-02-20 05:00:00,
2013-02-19 21:05:00,26.2,25.5,29.77,North,355,0.0,0.0,97,0.00,,---,0.15,VWS V14.01,2013-02-20 05:05:00,
2013-02-19 21:10:00,26.3,25.6,29.78,North,355,0.0,0.0,97,0.00,,---,0.15,VWS V14.01,2013-02-20 05:10:00,
2013-02-19 21:15:00,26.3,25.6,29.78,North,355,0.0,0.0,97,0.00,,---,0.15,VWS V14.01,2013-02-20 05:15:00,
2013-02-19 21:20:00,26.4,25.7,29.78,North,355,0.0,0.0,97,0.00,,---,0.15,VWS V14.01,2013-02-20 05:20:00,
2013-02-19 21:25:00,26.5,25.8,29.78,North,355,0.0,0.0,97,0.00,,---,0.15,VWS V14.01,2013-02-20 05:25:00,
2013-02-19 21:30:00,26.5,25.8,29.78,North,355,0.0,0.0,97,0.00,,---,0.15,VWS V14.01,2013-02-20 05:30:00,
2013-02-19 21:35:00,26.5,25.8,29.78,North,355,0.0,0.0,97,0.00,,---,0.15,VWS V14.01,2013-02-20 05:35:00,
2013-02-19 21:40:00,26.6,25.9,29.79,North,355,0.0,0.0,97,0.00,,---,0.15,VWS V14.01,2013-02-20 05:40:00,
2013-02-19 21:45:00,26.8,26.1,29.79,North,355,0.0,0.0,97,0.00,,---,0.15,VWS V14.01,2013-02-20 05:45:00,
2013-02-19 21:50:00,26.9,26.2,29.79,North,355,0.0,0.0,97,0.00,,---,0.15,VWS V14.01,2013-02-20 05:50:00,
2013-02-19 21:55:00,27.0,26.3,29.79,North,355,0.0,0.0,97,0.00,,---,0.15,VWS V14.01,2013-02-20 05:55:00,
2013-02-19 22:00:00,27.0,26.3,29.79,North,355,0.0,0.0,97,0.00,,---,0.15,VWS V14.01,2013-02-20 06:00:00,
2013-02-19 22:05:00,27.0,26.3,29.79,North,355,0.0,0.0,97,0.00,,---,0.15,VWS V14.01,2013-02-20 06:05:00,
2013-02-19 22:10:00,27.2,26.5,29.80,North,355,0.0,0.0,97,0.00,,---,0.15,VWS V14.01,2013-02-20 06:10:00,
2013-02-19 22:15:00,27.3,26.6,29.80,North,355,0.0,0.0,97,0.00,,---,0.15,VWS V14.01,2013-02-20 06:15:00,
2013-02-19 22:20:00,27.6,26.9,29.80,North,355,0.0,0.0,97,0.00,,---,0.15,VWS V14.01,2013-02-20 06:20:00,
2013-02-19 22:25:00,27.6,26.9,29.80,North,355,0.0,0.0,97,0.00,,---,0.15,VWS V14.01,2013-02-20 06:25:00,
2013-02-19 22:30:00,27.7,27.0,29.80,North,355,0.0,0.0,97,0.00,,---,0.15,VWS V14.01,2013-02-20 06:30:00,
2013-02-19 22:35:00,27.8,27.1,29.80,North,355,0.0,0.0,97,0.00,,---,0.15,VWS V14.01,2013-02-20 06:35:00,
2013-02-19 22:40:00,27.8,27.1,29.80,North,355,0.0,0.0,97,0.00,,---,0.15,VWS V14.01,2013-02-20 06:40:00,
2013-02-19 22:45:00,27.8,27.1,29.80,North,355,0.0,0.0,97,0.00,,---,0.15,VWS V14.01,2013-02-20 06:45:00,
2013-02-19 22:50:00,27.9,27.2,29.80,North,355,0.0,0.0,97,0.00,,---,0.15,VWS V14.01,2013-02-20 06:50:00,
2013-02-19 22:55:00,28.1,27.4,29.80,North,355,0.0,0.0,97,0.00,,---,0.15,VWS V14.01,2013-02-20 06:55:00,
2013-02-19 23:00:00,28.2,27.5,29.80,North,355,0.0,0.0,97,0.00,,---,0.15,VWS V14.01,2013-02-20 07:00:00,
2013-02-19 23:05:00,28.2,27.5,29.81,North,355,0.0,0.0,97,0.00,,---,0.15,VWS V14.01,2013-02-20 07:05:00,
2013-02-19 23:10:00,28.3,27.6,29.81,North,355,0.0,0.0,97,0.00,,---,0.15,VWS V14.01,2013-02-20 07:10:00,
2013-02-19 23:15:00,28.3,27.6,29.81,North,355,0.0,0.0,97,0.00,,---,0.15,VWS V14.01,2013-02-20 07:15:00,
2013-02-19 23:20:00,28.5,27.8,29.81,North,355,0.0,0.0,97,0.00,,---,0.15,VWS V14.01,2013-02-20 07:20:00,
2013-02-19 23:25:00,28.5,27.8,29.81,North,355,0.0,0.0,97,0.00,,---,0.15,VWS V14.01,2013-02-20 07:25:00,
2013-02-19 23:30:00,28.5,27.8,29.81,North,355,0.0,0.0,97,0.00,,---,0.15,VWS V14.01,2013-02-20 07:30:00,
2013-02-19 23:35:00,28.6,27.9,29.81,North,355,0.0,1.0,97,0.00,,---,0.15,VWS V14.01,2013-02-20 07:35:00,
2013-02-19 23:40:00,28.6,27.9,29.81,North,355,0.0,1.0,97,0.00,,---,0.15,VWS V14.01,2013-02-20 07:40:00,
2013-02-19 23:45:00,28.7,28.0,29.82,North,355,0.0,1.0,97,0.00,,---,0.15,VWS V14.01,2013-02-20 07:45:00,
2013-02-19 23:50:00,28.8,28.1,29.82,North,355,0.0,1.0,97,0.00,,---,0.15,VWS V14.01,2013-02-20 07:50:00,
2013-02-19 23:55:00,28.9,28.2,29.82,North,355,0.0,1.0,97,0.00,,---,0.15,VWS V14.01,2013-02-20 07:55:00,